TIBA-1

Last updated on Thu Jul 03 2025 00:02:48 GMT+0000 (Coordinated Universal Time)

1 44800U 19080A 25183.57370248 .00000163 00000+0 00000+0 0 9997 2 44800 0.0528 16.2287 0002077 94.8824 51.7452 1.00271834 20552
UTC large
Height (km)
Speed (km/s)
/
Latitude / Longitude
Inclination (degrees)
Orbital Period (minutes)
Azimuth
Elevation
Range (km)
Doppler Factor

Next 0 passes for location: London (51.5072 / 0.1276)

Sorry there are no passes over London.